Location: Aufkirchen
(47.9603°N, 11.3653°E)
Time: 07:06:30
(UTC+01:00)

Transit 4A - Pass Details

Date: 02 December 2020
Orbit: 864 x 981 km, 66.8° (Epoch: 16 January)

Event Time Altitude Azimuth Distance (km) Brightness Sun altitude
Rises 07:31:59 0° 207° (SSW) 3,622 11.0 -2.6°
Reaches altitude 10° 07:34:30 10° 206° (SSW) 2,693 10.4 -2.3°
Maximum altitude 07:40:49 78° 122° (ESE) 1,001 8.3 -1.4°
Drops below altitude 10° 07:47:15 10° 37° (NE) 2,741 10.4 -0.5°
Sets 07:49:50 0° 36° (NE) 3,691 11.1 -0.1°
